Honolulu, HI

2:37 AM HST on August 26, 2016 (GMT -1000)
Honolulu International

Weather History for PHNL - March, 2012

Change the Weather History Date:

Tuesday, March 20, 2012

  Actual Average Record
Temperature  
Mean Temperature 75 °F 75 °F  
Max Temperature 84 °F 81 °F 88 °F (1998)
Min Temperature 66 °F 68 °F 60 °F (1981)
Degree Days  
Heating Degree Days 0 0  
Month to date heating degree days 0 0  
Since 1 July heating degree days 0 0  
Cooling Degree Days 10 10  
Month to date cooling degree days 179 183  
Year to date cooling degree days 725 665  
Growing Degree Days 24 (Base 50)    
Moisture  
Dew Point 62 °F    
Average Humidity 67    
Maximum Humidity 87    
Minimum Humidity 47    
Precipitation  
Precipitation 0.00 in 0.06 in 1.69 in (1991)
Month to date precipitation 5.50 1.37  
Year to date precipitation 7.20 5.67  
Snow  
Snow 0.00 in - - ()
Month to date snowfall 0.0  
Since 1 July snowfall 0.0  
Snow Depth 0.00 in    
Sea Level Pressure  
Sea Level Pressure 30.05 in    
Wind  
Wind Speed 7 mph (NE)    
Max Wind Speed 17 mph    
Max Gust Speed 21 mph    
Visibility 10 miles    
Events      
T = Trace of Precipitation, MM = Missing Value Source: NWS Daily Summary

Daily Weather History Graph

Daily Weather History Graph

Search for Another Location

Airport or City:

Trip Planner

Search our weather history database for the weather conditions in past years. The results will help you decide how hot, cold, wet, or windy it might be!

Date:

Astronomy

Mar. 20, 2012 Rise Set
Actual Time 6:35 AM HST 6:42 PM HST
Civil Twilight 6:12 AM HST 7:05 PM HST
Nautical Twilight 5:47 AM HST 7:31 PM HST
Astronomical Twilight 5:21 AM HST 7:56 PM HST
Moon 5:14 AM HST (3/20) 5:26 PM HST (3/20)
Length of Visible Light 12h 52m
Length of Day
12h 07m
Waning Crescent, 3% of the Moon is Illuminated
Mar 20
Waning Crescent
Mar 22
New
Mar 30
First Quarter
Apr 6
Full
Apr 13
Last Quarter

Hourly Weather History & Observations

Time (HST) Temp. Heat Index Dew Point Humidity Pressure Visibility Wind Dir Wind Speed Gust Speed Precip Events Conditions
12:53 AM 70.0 °F - 63.0 °F 78% 30.05 in 10.0 mi NNW 5.8 mph - N/A   Partly Cloudy
1:53 AM 69.1 °F - 63.0 °F 81% 30.03 in 10.0 mi North 5.8 mph - N/A   Partly Cloudy
2:53 AM 69.1 °F - 63.0 °F 81% 30.01 in 10.0 mi NNW 6.9 mph - N/A   Partly Cloudy
3:53 AM 68.0 °F - 63.0 °F 84% 30.01 in 10.0 mi NNW 3.5 mph - N/A   Partly Cloudy
4:53 AM 68.0 °F - 63.0 °F 84% 30.01 in 10.0 mi North 5.8 mph - N/A   Partly Cloudy
5:53 AM 66.9 °F - 62.1 °F 84% 30.03 in 10.0 mi North 3.5 mph - N/A   Partly Cloudy
6:53 AM 66.9 °F - 61.0 °F 81% 30.04 in 10.0 mi North 3.5 mph - N/A   Scattered Clouds
7:53 AM 72.0 °F - 62.1 °F 71% 30.05 in 10.0 mi Calm Calm - N/A   Scattered Clouds
8:53 AM 75.0 °F - 63.0 °F 66% 30.07 in 10.0 mi Calm Calm - N/A   Scattered Clouds
9:53 AM 79.0 °F - 60.1 °F 52% 30.07 in 10.0 mi East 11.5 mph - N/A   Scattered Clouds
10:53 AM 81.0 °F 81.7 °F 61.0 °F 50% 30.07 in 10.0 mi ENE 11.5 mph - N/A   Scattered Clouds
11:53 AM 82.9 °F 83.3 °F 61.0 °F 47% 30.06 in 10.0 mi ENE 15.0 mph - N/A   Scattered Clouds
12:53 PM 82.9 °F 83.2 °F 60.1 °F 46% 30.04 in 10.0 mi East 9.2 mph 16.1 mph N/A   Scattered Clouds
1:53 PM 82.0 °F 82.4 °F 60.1 °F 47% 30.03 in 10.0 mi ENE 13.8 mph 17.3 mph N/A   Scattered Clouds
2:53 PM 82.9 °F 83.3 °F 61.0 °F 47% 30.01 in 10.0 mi ENE 15.0 mph - N/A   Scattered Clouds
3:53 PM 80.1 °F 81.2 °F 62.1 °F 54% 30.01 in 10.0 mi ENE 11.5 mph - N/A   Scattered Clouds
4:53 PM 80.1 °F 81.2 °F 62.1 °F 54% 30.02 in 10.0 mi ENE 12.7 mph - N/A   Scattered Clouds
5:53 PM 77.0 °F - 61.0 °F 58% 30.03 in 10.0 mi NE 9.2 mph - N/A   Mostly Cloudy
6:53 PM 75.0 °F - 62.1 °F 64% 30.06 in 10.0 mi East 10.4 mph - N/A   Mostly Cloudy
7:53 PM 75.0 °F - 61.0 °F 62% 30.08 in 10.0 mi Calm Calm - N/A   Partly Cloudy
8:53 PM 73.9 °F - 61.0 °F 64% 30.09 in 10.0 mi Calm Calm - N/A   Partly Cloudy
9:53 PM 73.9 °F - 61.0 °F 64% 30.11 in 10.0 mi North 6.9 mph - N/A   Partly Cloudy
10:53 PM 73.0 °F - 63.0 °F 71% 30.11 in 10.0 mi NE 9.2 mph - N/A   Partly Cloudy
11:53 PM 73.0 °F - 63.0 °F 71% 30.12 in 10.0 mi ENE 9.2 mph - N/A   Partly Cloudy